Tracking 29528 objects as of 12-Sep-2024
HD Live streaming from Space Station
objects crossing your sky now

STARLINK-5394

Track STARLINK-5394 now!
10-day predictions
STARLINK-5394 is classified as:


NORAD ID: 54830
Int'l Code: 2022-177L
Perigee: 565.4 km
Apogee: 567.0 km
Inclination: 43.0 °
Period: 95.8 minutes
Semi major axis: 6937 km
RCS: Unknown
Launch date: December 28, 2022
Source: United States (US)
Launch site: AIR FORCE EASTERN TEST RANGE (AFETR)
Your satellite tracking list
Your tracking list is empty




NASA's NSSDC Master Catalog

Two Line Element Set (TLE):
1 54830U 22177L   24255.94507831 -.00000942  00000-0 -54684-4 0  9992
2 54830  43.0027 207.7479 0001139 266.0861  93.9851 15.02531714 95162
Source of the keplerian elements: AFSPC